Regional Weather Roundup
Issued by NWS

Home | Current Version | Previous Version | Text Only | Print | Product List | Glossary Off
Versions: 1 2 3 4 5 6 7 8 9 10 11 12 13 14 15 16 17 18 19 20 21 22 23 24 25 26 27 28 29 30 31 32 33 34 35 36 37 38 39 40 41 42 43 44 45 46 47 48 49 50

000
ASUS43 KMPX 231701
RWRMN
WEATHER ROUNDUP FOR MINNESOTA
NATIONAL WEATHER SERVICE TWIN CITIES/CHANHASSEN MN
1200 PM CDT WED APR 23 2014


NOTE: "FAIR" INDICATES FEW OR NO CLOUDS BELOW 12,000 FEET WITH NO
SIGNIFICANT WEATHER AND/OR OBSTRUCTIONS TO VISIBILITY. N/A MEANS
CURRENT SKY AND/OR WEATHER CONDITIONS ARE NOT AVAILABLE.

MNZ060>063-068>070-231800-
   Twin Cities Metro

CITY           SKY/WX    TMP DP  RH WIND       PRES   REMARKS
TWIN CITIES    CLOUDY    47  28  47 S16       30.08F
ST PAUL        CLOUDY    47  28  47 S17       30.10F
CRYSTAL        CLOUDY    49  28  44 SE16G22   30.07F
BLAINE         CLOUDY    50  28  43 SE17G24   30.07F
EDEN PRAIRIE   CLOUDY    47  29  49 SE20      30.05F
LAKEVILLE      CLOUDY    45  30  57 SE14G22   30.08F
SOUTH ST PAUL  CLOUDY    49  29  45 SE7       30.09F
LAKE ELMO      FAIR      46  30  53 SE12      30.10F
$$
MNZ001>005-007-008-013>017-022>024-027-028-231800-
   Northwest Minnesota

CITY           SKY/WX    TMP DP  RH WIND       PRES   REMARKS
BEMIDJI        CLOUDY    49  24  38 SE23G29   29.97F
HALLOCK        CLOUDY    52  30  43 SE17G24   29.89S
ROSEAU         CLOUDY    55  25  30 SE18      29.96F
WARROAD        CLOUDY    54  30  40 SE16      29.98F
THIEF RVR FALL CLOUDY    52  25  35 SE24      29.91F
CROOKSTON      LGT RAIN  46  37  71 S15       29.91R
FOSSTON        LGT RAIN  48  23  37 SE21G26   29.91F
DETROIT LAKES  LGT RAIN  43  37  81 SE22      29.91F
MOORHEAD       DRIZZLE   45  43  93 SE21G26   29.88S
PARK RAPIDS    CLOUDY    48  26  42 SE24G31   29.96F
$$
MNZ006-009>011-018-025>026-231800-
   North Central Minnesota

CITY           SKY/WX    TMP DP  RH WIND       PRES   REMARKS
BAUDETTE       CLOUDY    52  25  35 S13G18    30.01F
FLAG ISLAND    CLOUDY    43  27  52 SE8       30.01F
INTL FALLS     CLOUDY    52  23  32 SE13G20   30.05F
WASKISH        CLOUDY    54  25  32 SE14G22   30.00F
BIG FORK       CLOUDY    54  23  30 S14G22    30.05S
LONGVILLE      CLOUDY    48  23  37 SE16G24   30.02F
GRAND RAPIDS   CLOUDY    48  23  37 SE13G22   30.05F
CRANE LAKE     PTSUNNY   54  19  26 S7        30.10S
ORR            CLOUDY    52  18  25 S9G16     30.05F
COOK           CLOUDY    48  25  40 S9        30.08F
$$
MNZ012-019>021-037-231800-
   Northeast Minnesota

CITY           SKY/WX    TMP DP  RH WIND       PRES   REMARKS
DULUTH         CLOUDY    47  26  44 SE9       30.11S
ELY            PTSUNNY   52  18  25 SE5       30.09S
HIBBING        PTSUNNY   53  24  32 S12G21    30.08F
EVELETH        CLOUDY    52  25  35 SE12G18   30.10S
DULUTH HARBOR  CLOUDY    36  32  87 CALM      30.15S
TWO HARBORS    CLOUDY    46  28  49 E6        30.11F
SILVER BAY     CLOUDY    45  28  53 CALM      30.13S
GRAND MARAIS     N/A     40  29  64 CALM      30.17R
G MARAIS ARPRT MOSUNNY   45  21  39 SE3       30.13S
$$
MNZ029>031-032-039>041-046>048-054>057-064-231800-
   West Central Minnesota

CITY           SKY/WX    TMP DP  RH WIND       PRES   REMARKS
FERGUS FALLS   LGT RAIN  41  39  93 SE23G30   29.88S
WHEATON        LGT RAIN  45  41  87 SE24G30   29.91R
MORRIS         LGT RAIN  41  37  87 SE28G33   29.90S
ALEXANDRIA     LGT RAIN  39  36  89 SE22G30   29.94F FOG
ELBOW LAKE     RAIN      40  38  92 SE22G31   29.90S
WADENA         LGT RAIN  41  36  81 SE24G33   29.95F
GLENWOOD       RAIN      39  37  93 SE23      29.96F
APPLETON       LGT RAIN  43  39  87 SE20G25   29.91F
BENSON         LGT RAIN  41  37  87 S18G30    29.95R
ORTONVILLE     DRIZZLE   43  37  81 SE22G30   29.88F
MADISON        CLOUDY    46  39  76 SE23G30   29.89F
WILLMAR        DRIZZLE   41  37  87 SE23      29.98S
$$
MNZ033>034-036-042>043-049>051-058-059-231800-
   Central Minnesota

CITY           SKY/WX    TMP DP  RH WIND       PRES   REMARKS
ST CLOUD       LGT RAIN  44  34  67 SE9       30.04F
SAUK CENTRE    LGT RAIN  39  36  89 SE18G25   29.99F
PAYNESVILLE    LGT RAIN  40  36  88 E16       30.00F
AITKIN         CLOUDY    52  21  30 SE16      30.04F
PINE RIVER     CLOUDY    48  28  46 E14G24    30.04F
BRAINERD       CLOUDY    53  26  35 SE15G24   30.03F
STAPLES        CLOUDY    46  28  49 SE13G31   29.98F
LONG PRAIRIE   CLOUDY    37  34  87 E15G22    30.00F
LITTLE FALLS   DRIZZLE   45  28  53 SE17G25   30.03F
LITCHFIELD     RAIN      41  39  93 SE20G26   30.00F
BUFFALO        RAIN      45  32  60 SE10G21   30.05F
MAPLE LAKE     LGT RAIN  45  35  70 SE9       30.05F
$$
MNZ037-044-045-052-053-231800-
   East Central Minnesota

CITY           SKY/WX    TMP DP  RH WIND       PRES   REMARKS
PRINCETON      CLOUDY    48  27  43 SE12G18   30.07S
MORA           CLOUDY    46  25  42 SE10      30.10S
CAMBRIDGE      CLOUDY    50  32  50 SE8       30.06F
RUSH CITY      CLOUDY    47  27  44 S12G18    30.09F
MOOSE LAKE     CLOUDY    50  27  40 SE7       30.07F
HINCKLEY       FAIR      48  28  46 SE10      30.10S
CLOQUET        CLOUDY    46  23  39 E5        30.10S
MCGREGOR       CLOUDY    50  27  40 SE10      30.07F
$$
MNZ071>073-080-081-089-090-097-098-231800-
   Southwest Minnesota

CITY           SKY/WX    TMP DP  RH WIND       PRES   REMARKS
MONTEVIDEO     CLOUDY    43  39  87 S22       29.93F
GRANITE FALLS  CLOUDY    43  35  74 E20G25    29.95S
CANBY          CLOUDY    44  38  80 SE21G26   29.88F
MARSHALL       CLOUDY    45  34  65 SE21G26   29.89S
REDWOOD FALLS  CLOUDY    43  36  76 SE20G26   29.95S
OLIVIA         CLOUDY    41  36  81 E17G23    29.96S
PIPESTONE      CLOUDY    48  34  57 SE25G32   29.80F
WINDOM         CLOUDY    45  36  70 E16       29.92S
WORTHINGTON    CLOUDY    46  30  53 SE21G26   29.89F
JACKSON        CLOUDY    46  32  57 SE18G26   29.93R
TRACY          CLOUDY    46  36  68 SE20      29.90F
SLAYTON        CLOUDY    44  35  70 SE18      29.88F
$$
MNZ065>067-074>077-082>085-091>093-231800-
   South Central Minnesota

CITY           SKY/WX    TMP DP  RH WIND       PRES   REMARKS
MANKATO        CLOUDY    41  36  81 SE24      30.02F
NEW ULM        CLOUDY    43  37  81 SE17      29.98F
ST JAMES       CLOUDY    46  37  71 E17G24    29.98R
FAIRMONT       CLOUDY    46  32  57 SE23G32   29.96F
GLENCOE        LGT RAIN  41  36  81 E20G26    30.02F
FARIBAULT      LGT RAIN  45  34  65 SE12      30.09S
OWATONNA       RAIN      41  36  81 E12       30.07F
WASECA         LGT RAIN  37  32  81 E16       30.07S
ALBERT LEA     MIX PCPN  45  30  57 SE20G29   30.03F
$$
MNZ078>079-086>088-094>096-231800-
   Southeast Minnesota

CITY           SKY/WX    TMP DP  RH WIND       PRES   REMARKS
ROCHESTER      CLOUDY    44  30  57 SE14      30.10F
RED WING       CLOUDY    48  28  46 S9        30.11F
DODGE CENTER   LGT RAIN  45  36  70 SE14      30.08F
WINONA         CLOUDY    48  30  49 S8        30.15R
AUSTIN         LGT RAIN  45  30  57 SE15      30.07F
PRESTON        CLOUDY    44  29  55 SE13      30.12F
$$
ABBREVIATIONS USED IN REMARKS
   TC - TEMPERATURES IN CELSIUS
  WCI - WIND CHILL INDEX
   HX - HEAT INDEX
  VSB - VISIBILITY
$$


USA.gov is the U.S. government's official web portal to all federal, state and local government web resources and services.